EW7595 Weather Reports


Display with metric or nautical units.
time (UTC)temp
F
wind
direction
speed
MPH
gust
MPH
rain 1hr
in
rain 24hr
in
rain mn
in
humidity
%
barometer
mb
20180424023849 46 44 0.0 1.0 0.00 0.00 0.00 37 1032.9
20180424022216 47 45 0.0 2.0 0.00 0.00 0.00 36 1032.7
20180424020423 48 51 1.0 3.0 0.00 0.00 0.00 34 1032.6
20180424014736 49 84 1.0 4.0 0.00 0.00 0.00 33 1032.6
20180424012946 50 71 1.0 7.0 0.00 0.00 0.00 32 1032.5
20180424011309 50 2 2.0 6.0 0.00 0.00 0.00 31 1032.5
20180424005514 50 217 0.0 6.0 0.00 0.00 0.00 31 1032.4
20180424003837 50 37 6.0 11.0 0.00 0.00 0.00 33 1032.5
20180424002044 49 64 9.0 13.0 0.00 0.00 0.00 34 1032.4
20180424000405 50 315 2.0 7.0 0.00 0.00 0.00 34 1032.3
20180423234612 50 23 8.0 14.0 0.00 0.00 0.00 32 1032.3
20180423232929 50 40 5.0 13.0 0.00 0.00 0.00 36 1032.3
20180423231139 50 76 7.0 13.0 0.00 0.00 0.00 33 1032.2
20180423225455 49 121 4.0 14.0 0.00 0.00 0.00 38 1032.1
20180423223707 49 296 3.0 12.0 0.00 0.00 0.00 39 1032.0
20180423221923 48 34 7.0 14.0 0.00 0.00 0.00 38 1032.1
20180423220240 48 60 2.0 10.0 0.00 0.00 0.00 41 1032.1
20180423214448 48 85 2.0 12.0 0.00 0.00 0.00 41 1032.1
20180423212816 48 39 6.0 14.0 0.00 0.00 0.00 43 1032.2
20180423211026 48 28 9.0 15.0 0.00 0.00 0.00 42 1032.2
20180423205343 48 32 6.0 14.0 0.00 0.00 0.00 44 1032.0
20180423203549 47 34 7.0 15.0 0.00 0.00 0.00 46 1031.9
20180423201910 47 43 7.0 12.0 0.00 0.00 0.00 45 1031.7
20180423200132 46 47 7.0 12.0 0.00 0.00 0.00 48 1031.5
20180423194450 46 35 8.0 14.0 0.00 0.00 0.00 48 1031.6
20180423192656 46 345 5.0 15.0 0.00 0.00 0.00 49 1031.6
20180423191014 46 54 8.0 14.0 0.00 0.00 0.00 51 1031.6
20180423185222 45 8 5.0 16.0 0.00 0.00 0.00 51 1031.6
20180423183435 45 292 6.0 15.0 0.00 0.00 0.00 55 1031.7
20180423181739 45 26 5.0 13.0 0.00 0.00 0.00 54 1031.8
20180423180055 44 31 3.0 13.0 0.00 0.00 0.00 58 1031.7
20180423174307 44 27 4.0 14.0 0.00 0.00 0.00 58 1031.7
20180423172630 43 23 6.0 15.0 0.00 0.00 0.00 60 1031.5
20180423170835 43 355 7.0 15.0 0.00 0.00 0.00 61 1031.4
20180423165152 42 46 9.0 14.0 0.00 0.00 0.00 63 1031.1
20180423163404 41 63 7.0 13.0 0.00 0.00 0.00 63 1031.0
20180423161614 41 19 6.0 12.0 0.00 0.00 0.00 64 1030.8
20180423155934 40 13 4.0 12.0 0.00 0.00 0.00 65 1030.9
20180423154146 40 8 6.0 12.0 0.00 0.00 0.00 65 1030.9
20180423152506 39 1 5.0 13.0 0.00 0.00 0.00 66 1030.6
20180423150719 39 319 4.0 12.0 0.00 0.00 0.00 68 1030.3
20180423145046 38 313 7.0 12.0 0.00 0.00 0.00 69 1030.1
20180423143300 38 319 6.0 10.0 0.00 0.00 0.00 70 1029.5
20180423141621 38 297 3.0 7.0 0.00 0.00 0.00 69 1029.5
20180423135822 0 0.0 0.0 0.00 0.00 0.00 1029.0
20180423134149 0 0.0 0.0 0.00 0.00 0.00 1028.7
20180423132355 0 0.0 0.0 0.00 0.00 0.00 1028.6
20180423130607 0 0.0 0.0 0.00 0.00 0.00 1028.5
20180423124924 38 87 0.0 2.0 0.00 0.00 0.00 64 1028.8
20180423123141 38 39 1.0 5.0 0.00 0.00 0.00 63 1028.8
20180423121457 39 79 1.0 5.0 0.00 0.00 0.00 63 1028.8
20180423115712 39 91 2.0 4.0 0.00 0.00 0.00 63 1028.6
20180423114035 39 152 1.0 3.0 0.00 0.00 0.00 62 1028.4
20180423112236 38 14 2.0 7.0 0.00 0.00 0.00 62 1027.7
20180423110451 39 37 4.0 8.0 0.00 0.00 0.00 61 1027.4
20180423104814 38 18 2.0 7.0 0.00 0.00 0.00 62 1027.2
20180423103024 38 309 2.0 6.0 0.00 0.00 0.00 63 1026.7
20180423101346 38 326 1.0 6.0 0.00 0.00 0.00 64 1026.4
20180423095601 39 277 3.0 7.0 0.00 0.00 0.00 62 1026.2
20180423093917 39 32 4.0 7.0 0.00 0.00 0.00 62 1026.2
20180423092125 39 44 2.0 11.0 0.00 0.00 0.00 60 1026.0
20180423090448 39 307 2.0 8.0 0.00 0.00 0.00 58 1026.0
20180423084706 39 23 4.0 11.0 0.00 0.00 0.00 57 1026.0
20180423082917 39 32 6.0 9.0 0.00 0.00 0.00 58 1026.3
20180423081247 40 56 7.0 13.0 0.00 0.00 0.00 56 1026.3
20180423075459 40 34 10.0 14.0 0.00 0.00 0.00 55 1026.0
20180423073817 40 22 5.0 13.0 0.00 0.00 0.00 56 1025.9
20180423072029 40 31 6.0 14.0 0.00 0.00 0.00 58 1025.8
20180423070349 40 30 8.0 16.0 0.00 0.00 0.00 58 1025.5
20180423064553 40 4 8.0 15.0 0.00 0.00 0.00 58 1025.0
20180423062915 40 39 8.0 18.0 0.00 0.00 0.00 58 1024.9
20180423061132 41 25 8.0 15.0 0.00 0.00 0.00 57 1024.8
20180423055351 41 60 8.0 15.0 0.00 0.00 0.00 57 1024.7
20180423053708 42 34 8.0 16.0 0.00 0.00 0.00 55 1024.6
20180423051908 42 358 5.0 10.0 0.00 0.00 0.00 55 1024.4
20180423050235 43 313 5.0 8.0 0.00 0.00 0.00 52 1024.2
20180423044440 44 305 4.0 9.0 0.00 0.00 0.00 48 1024.0
20180423042754 45 17 8.0 16.0 0.00 0.00 0.00 46 1023.9
20180423041000 46 21 7.0 13.0 0.00 0.00 0.00 42 1023.7
20180423035315 45 333 5.0 9.0 0.00 0.00 0.00 43 1023.4
20180423033527 46 310 6.0 12.0 0.00 0.00 0.00 41 1023.2
20180423031838 47 15 7.0 12.0 0.00 0.00 0.00 40 1023.0
20180423030051 47 21 6.0 11.0 0.00 0.00 0.00 38 1022.6